contact:dominique.lefevre@mio.osupytheas.fr, maurice.libes@osupytheas.fr, didier.mallarino@osupytheas.fr
Project:EMSO http://www.emso-fr.org/EMSO-France
Depth: 2436.0 m
Title:EMSO Ligure Ouest : Data MII capteur AQUADOPP
Date,Latitude,Longitude,X_East,Y_North,Z_Up,Amplitude_X,Amplitude_Y,Amplitude_Z,Batterie,SoundSpeed,Heading,Pitch,Roll,Pressure,TIS,Speed,Direction
, degrees North, degrees East, m.s-1, m.s-1,m.s-1, 1, 1, 1, Volt, m.s-1, degree, degree, degree, dbar, degree_C, m.s-1, degree
2023-11-27T00:04:03,42.805,6.029,-0.027,0.033,-0.011,107.0,107.0,104.0,13.3,1505.2,342.7,-0.8,1.8,2471.551,13.29,0.042,320.7
2023-11-27T00:07:03,42.805,6.029,-0.031,0.027,0.009,106.0,105.0,103.0,13.3,1505.2,352.2,-0.7,1.8,2471.522,13.29,0.041,311.1
2023-11-27T00:10:03,42.805,6.029,-0.014,0.026,-0.016,107.0,104.0,103.0,13.4,1505.2,0.0,-0.7,1.8,2471.56,13.29,0.029,331.7
2023-11-27T00:13:03,42.805,6.029,-0.028,0.037,-0.016,107.0,105.0,104.0,13.4,1505.2,342.1,-0.8,1.8,2471.506,13.29,0.046,322.9
2023-11-27T00:16:03,42.805,6.029,-0.042,0.024,-0.028,107.0,106.0,105.0,13.4,1505.2,342.6,-0.8,1.8,2471.528,13.29,0.048,299.7
2023-11-27T00:19:03,42.805,6.029,-0.024,0.035,-0.02,107.0,106.0,103.0,13.4,1505.2,339.8,-0.8,1.8,2471.503,13.29,0.042,325.6
2023-11-27T00:22:03,42.805,6.029,-0.037,0.03,-0.01,107.0,106.0,104.0,13.4,1505.2,346.9,-0.8,1.8,2471.488,13.29,0.047,309.0
2023-11-27T00:25:03,42.805,6.029,-0.033,0.023,0.015,106.0,107.0,103.0,13.3,1505.2,350.3,-0.8,1.8,2471.493,13.29,0.04,304.9
2023-11-27T00:28:03,42.805,6.029,-0.033,0.042,-0.006,107.0,105.0,106.0,13.4,1505.2,351.8,-0.7,1.8,2471.459,13.29,0.053,321.8
2023-11-27T00:31:03,42.805,6.029,-0.017,0.034,-0.019,107.0,106.0,104.0,13.3,1505.2,350.6,-0.7,1.8,2471.475,13.29,0.038,333.4
2023-11-27T00:34:03,42.805,6.029,-0.031,0.029,-0.026,107.0,106.0,104.0,13.4,1505.2,346.1,-0.7,1.8,2471.503,13.29,0.042,313.1
2023-11-27T00:37:03,42.805,6.029,-0.065,0.025,-0.026,107.0,106.0,104.0,13.3,1505.2,337.6,-0.8,1.8,2471.466,13.29,0.069,291.0
2023-11-27T00:40:03,42.805,6.029,-0.036,0.033,-0.023,107.0,107.0,105.0,13.3,1505.2,351.1,-0.8,1.8,2471.457,13.29,0.048,312.5
2023-11-27T00:43:03,42.805,6.029,-0.015,0.04,-0.008,107.0,106.0,104.0,13.3,1505.2,351.7,-0.7,1.8,2471.478,13.29,0.042,339.4
2023-11-27T00:46:03,42.805,6.029,-0.033,0.019,-0.013,107.0,106.0,103.0,13.4,1505.2,350.6,-0.8,1.8,2471.476,13.29,0.038,299.9
2023-11-27T00:49:03,42.805,6.029,-0.004,0.01,-0.028,107.0,106.0,105.0,13.4,1505.2,341.8,-0.7,1.8,2471.435,13.29,0.01,338.2
2023-11-27T00:52:03,42.805,6.029,-0.021,0.006,-0.013,108.0,106.0,104.0,13.3,1505.2,348.8,-0.8,1.8,2471.478,13.29,0.021,285.9
2023-11-27T00:55:03,42.805,6.029,-0.012,0.035,-0.026,106.0,106.0,104.0,13.4,1505.2,347.3,-0.8,1.8,2471.484,13.29,0.037,341.1
2023-11-27T00:58:03,42.805,6.029,-0.016,0.02,-0.023,107.0,107.0,104.0,13.3,1505.2,344.7,-0.7,1.8,2471.467,13.29,0.025,321.3
2023-11-27T01:04:02,42.805,6.029,-0.031,0.043,0.009,107.0,107.0,105.0,13.3,1505.2,335.6,-0.8,1.8,2471.538,13.29,0.053,324.2
2023-11-27T01:07:03,42.805,6.029,-0.012,0.027,-0.006,107.0,106.0,104.0,13.4,1505.2,356.4,-0.8,1.8,2471.481,13.29,0.029,336.0
2023-11-27T01:10:03,42.805,6.029,-0.01,0.045,-0.008,107.0,107.0,104.0,13.4,1505.2,345.7,-0.7,1.8,2471.447,13.29,0.046,347.5
2023-11-27T01:13:03,42.805,6.029,-0.016,0.042,-0.006,106.0,107.0,104.0,13.3,1505.2,359.1,-0.8,1.8,2471.492,13.29,0.044,339.1
2023-11-27T01:16:03,42.805,6.029,-0.033,0.018,-0.007,106.0,106.0,104.0,13.3,1505.2,343.7,-0.8,1.8,2471.509,13.29,0.037,298.6
2023-11-27T01:19:03,42.805,6.029,-0.012,0.026,-0.006,108.0,106.0,104.0,13.4,1505.2,353.2,-0.8,1.8,2471.506,13.29,0.028,335.2
2023-11-27T01:22:02,42.805,6.029,-0.022,0.032,-0.024,106.0,106.0,105.0,13.4,1505.2,344.8,-0.8,1.8,2471.494,13.29,0.038,325.5
2023-11-27T01:25:03,42.805,6.029,-0.01,0.022,-0.008,106.0,107.0,104.0,13.4,1505.2,0.8,-0.8,1.8,2471.475,13.29,0.024,335.6
2023-11-27T01:28:03,42.805,6.029,-0.043,0.017,-0.013,106.0,106.0,105.0,13.4,1505.2,338.6,-0.8,1.8,2471.457,13.29,0.046,291.6
2023-11-27T01:31:03,42.805,6.029,-0.025,0.032,-0.014,106.0,106.0,104.0,13.4,1505.2,350.5,-0.8,1.8,2471.504,13.29,0.04,322.0
2023-11-27T01:34:03,42.805,6.029,-0.019,0.032,-0.019,108.0,107.0,104.0,13.4,1505.2,359.0,-0.8,1.8,2471.496,13.29,0.037,329.3
2023-11-27T01:37:03,42.805,6.029,-0.013,0.003,-0.005,108.0,106.0,105.0,13.3,1505.2,343.0,-0.8,1.8,2471.465,13.29,0.013,283.0
2023-11-27T01:40:03,42.805,6.029,-0.017,0.021,-0.039,106.0,106.0,104.0,13.4,1505.2,356.3,-0.8,1.8,2471.485,13.29,0.027,321.0
2023-11-27T01:43:03,42.805,6.029,-0.018,0.037,-0.018,107.0,107.0,104.0,13.4,1505.2,351.3,-0.8,1.8,2471.475,13.29,0.041,334.1
2023-11-27T01:46:03,42.805,6.029,-0.019,0.011,-0.018,108.0,106.0,104.0,13.3,1505.2,350.3,-0.8,1.8,2471.488,13.29,0.021,300.1
2023-11-27T01:49:03,42.805,6.029,-0.008,0.034,0.001,106.0,107.0,104.0,13.3,1505.2,2.6,-0.8,1.9,2471.455,13.29,0.034,346.8
2023-11-27T01:52:03,42.805,6.029,-0.007,0.025,-0.012,109.0,107.0,103.0,13.4,1505.2,338.4,-0.8,1.8,2471.518,13.29,0.025,344.4
2023-11-27T01:55:03,42.805,6.029,-0.012,0.007,-0.029,107.0,106.0,104.0,13.4,1505.2,356.4,-0.7,1.8,2471.498,13.29,0.013,300.3
2023-11-27T01:58:03,42.805,6.029,-0.005,0.023,-0.048,108.0,106.0,105.0,13.4,1505.2,357.1,-0.8,1.8,2471.438,13.29,0.023,347.7
2023-11-27T03:04:02,42.805,6.029,-0.009,0.03,-0.005,106.0,106.0,103.0,13.3,1505.2,355.3,-0.8,1.8,2472.089,13.28,0.031,343.3
2023-11-27T03:07:03,42.805,6.029,-0.008,0.028,0.0,106.0,107.0,103.0,13.4,1505.2,0.0,-0.8,1.8,2471.98,13.28,0.029,344.1
2023-11-27T03:10:03,42.805,6.029,-0.018,0.0,-0.016,106.0,105.0,103.0,13.4,1505.2,337.4,-0.7,1.8,2471.859,13.28,0.018,270.0
2023-11-27T03:13:03,42.805,6.029,-0.007,0.03,-0.021,107.0,105.0,105.0,13.3,1505.2,351.6,-0.8,1.8,2471.785,13.29,0.03,346.9
2023-11-27T03:16:03,42.805,6.029,0.004,0.005,-0.035,106.0,106.0,105.0,13.4,1505.2,343.2,-0.8,1.8,2471.753,13.29,0.006,38.7
2023-11-27T03:19:03,42.805,6.029,0.003,0.024,-0.019,106.0,106.0,105.0,13.4,1505.2,357.2,-0.8,1.8,2471.713,13.29,0.024,7.1
2023-11-27T03:22:03,42.805,6.029,-0.003,0.02,-0.025,106.0,107.0,105.0,13.4,1505.2,343.2,-0.8,1.8,2471.654,13.29,0.02,351.5
2023-11-27T03:25:03,42.805,6.029,0.013,0.028,0.001,105.0,105.0,103.0,13.4,1505.2,353.5,-0.8,1.8,2471.646,13.29,0.03,24.9
2023-11-27T03:28:03,42.805,6.029,0.001,0.007,-0.013,106.0,105.0,105.0,13.4,1505.2,359.0,-0.8,1.8,2471.608,13.29,0.007,8.1
2023-11-27T03:31:03,42.805,6.029,0.004,0.012,-0.014,106.0,105.0,104.0,13.4,1505.2,348.8,-0.7,1.8,2471.612,13.29,0.012,18.4
2023-11-27T03:34:03,42.805,6.029,0.011,-0.011,-0.039,106.0,108.0,104.0,13.4,1505.2,352.7,-0.8,1.8,2471.591,13.29,0.015,135.0
2023-11-27T03:37:03,42.805,6.029,0.023,0.002,0.014,107.0,105.0,104.0,13.3,1505.2,351.7,-0.8,1.8,2471.638,13.29,0.023,85.0
2023-11-27T03:40:03,42.805,6.029,-0.001,0.019,-0.011,104.0,106.0,104.0,13.4,1505.2,337.2,-0.8,1.8,2471.585,13.29,0.019,357.0
2023-11-27T03:43:03,42.805,6.029,-0.023,0.021,-0.018,106.0,105.0,104.0,13.4,1505.2,344.8,-0.7,1.8,2471.596,13.29,0.031,312.4
2023-11-27T03:46:03,42.805,6.029,0.003,0.016,-0.001,106.0,106.0,104.0,13.4,1505.2,345.5,-0.7,1.8,2471.608,13.29,0.016,10.6
2023-11-27T03:49:03,42.805,6.029,0.0,0.002,-0.025,105.0,107.0,104.0,13.4,1505.2,357.5,-0.8,1.8,2471.589,13.29,0.002,0.0
2023-11-27T03:52:03,42.805,6.029,-0.006,0.017,-0.011,107.0,105.0,105.0,13.3,1505.2,335.6,-0.8,1.8,2471.555,13.29,0.018,340.6
2023-11-27T03:55:03,42.805,6.029,-0.007,0.006,-0.01,106.0,106.0,104.0,13.3,1505.2,343.9,-0.8,1.8,2471.598,13.29,0.009,310.6
2023-11-27T03:58:03,42.805,6.029,-0.01,0.033,-0.015,106.0,106.0,104.0,13.4,1505.2,0.8,-0.8,1.8,2471.615,13.29,0.034,343.1
2023-11-27T04:04:03,42.805,6.029,-0.005,0.007,-0.019,107.0,107.0,105.0,13.4,1505.2,351.4,-0.8,1.8,2471.644,13.29,0.008,324.5
2023-11-27T04:07:03,42.805,6.029,0.0,0.02,-0.011,107.0,107.0,103.0,13.4,1505.2,354.2,-0.8,1.9,2471.614,13.29,0.02,0.0
2023-11-27T04:10:03,42.805,6.029,0.003,0.029,-0.02,107.0,104.0,104.0,13.4,1505.2,349.0,-0.8,1.8,2471.64,13.29,0.029,5.9
2023-11-27T04:13:03,42.805,6.029,0.022,0.022,-0.011,106.0,107.0,104.0,13.4,1505.2,357.2,-0.8,1.8,2471.617,13.29,0.031,45.0
2023-11-27T04:16:03,42.805,6.029,0.004,0.015,-0.021,107.0,106.0,103.0,13.3,1505.2,337.3,-0.8,1.8,2471.621,13.29,0.015,14.9
2023-11-27T04:19:03,42.805,6.029,0.01,0.019,-0.013,107.0,105.0,104.0,13.4,1505.2,354.6,-0.8,1.8,2471.621,13.29,0.021,27.8
2023-11-27T04:22:03,42.805,6.029,0.007,0.019,0.018,106.0,106.0,104.0,13.4,1505.2,356.3,-0.7,1.8,2471.636,13.29,0.02,20.2
2023-11-27T04:25:03,42.805,6.029,0.011,0.016,-0.013,108.0,106.0,104.0,13.3,1505.2,0.8,-0.7,1.8,2471.616,13.29,0.019,34.5
2023-11-27T04:28:03,42.805,6.029,0.021,0.014,-0.007,107.0,106.0,104.0,13.4,1505.2,337.4,-0.7,1.8,2471.659,13.29,0.025,56.3
2023-11-27T04:31:03,42.805,6.029,0.0,0.022,0.01,105.0,106.0,104.0,13.4,1505.2,353.7,-0.8,1.8,2471.681,13.29,0.022,0.0
2023-11-27T04:34:03,42.805,6.029,-0.01,-0.002,-0.027,107.0,106.0,102.0,13.4,1505.2,0.9,-0.8,1.8,2471.647,13.29,0.01,258.7
2023-11-27T04:37:03,42.805,6.029,0.011,-0.008,-0.02,106.0,106.0,105.0,13.4,1505.2,337.4,-0.8,1.8,2471.647,13.29,0.013,126.0
2023-11-27T04:40:03,42.805,6.029,0.003,0.026,-0.022,106.0,106.0,105.0,13.4,1505.2,345.3,-0.8,1.8,2471.637,13.29,0.026,6.6
2023-11-27T04:43:03,42.805,6.029,0.004,0.01,-0.001,106.0,105.0,103.0,13.3,1505.2,352.3,-0.8,1.8,2471.656,13.29,0.01,21.8
2023-11-27T04:46:03,42.805,6.029,-0.007,0.018,-0.009,105.0,104.0,104.0,13.4,1505.2,345.9,-0.8,1.8,2471.652,13.29,0.019,338.8
2023-11-27T04:49:03,42.805,6.029,0.0,0.026,-0.034,107.0,106.0,103.0,13.3,1505.2,352.0,-0.7,1.8,2471.653,13.29,0.026,0.0
2023-11-27T04:52:03,42.805,6.029,0.013,0.005,-0.004,105.0,106.0,104.0,13.4,1505.2,356.4,-0.8,1.8,2471.654,13.29,0.013,69.0
2023-11-27T04:55:03,42.805,6.029,0.014,0.006,-0.002,106.0,107.0,104.0,13.4,1505.2,0.8,-0.8,1.8,2471.647,13.29,0.015,66.8
2023-11-27T04:58:03,42.805,6.029,0.0,0.02,0.004,105.0,106.0,104.0,13.4,1505.2,336.2,-0.8,1.8,2471.683,13.29,0.02,0.0
2023-11-27T05:04:03,42.805,6.029,0.012,0.015,-0.004,106.0,105.0,103.0,13.4,1505.2,346.8,-0.8,1.8,2471.699,13.29,0.019,38.7
2023-11-27T05:07:03,42.805,6.029,0.008,-0.008,-0.004,106.0,104.0,103.0,13.4,1505.2,358.3,-0.8,1.8,2471.738,13.29,0.011,135.0
2023-11-27T05:10:03,42.805,6.029,0.003,0.008,-0.007,108.0,106.0,103.0,13.4,1505.2,339.1,-0.8,1.8,2471.718,13.29,0.008,20.6
2023-11-27T05:13:03,42.805,6.029,0.01,0.013,0.011,106.0,106.0,104.0,13.3,1505.2,336.9,-0.8,1.8,2471.692,13.29,0.016,37.6
2023-11-27T05:16:03,42.805,6.029,0.02,0.015,-0.024,106.0,106.0,104.0,13.3,1505.2,342.6,-0.7,1.8,2471.702,13.29,0.025,53.1
2023-11-27T05:19:03,42.805,6.029,0.015,0.01,-0.035,107.0,105.0,102.0,13.4,1505.2,354.5,-0.8,1.8,2471.7,13.29,0.018,56.3
2023-11-27T05:22:03,42.805,6.029,-0.01,0.003,-0.032,105.0,105.0,103.0,13.3,1505.2,343.9,-0.8,1.8,2471.708,13.29,0.01,286.7
2023-11-27T05:25:03,42.805,6.029,0.016,0.012,-0.027,106.0,107.0,105.0,13.4,1505.2,353.5,-0.7,1.8,2471.693,13.29,0.02,53.1
2023-11-27T05:28:03,42.805,6.029,0.007,-0.001,-0.007,107.0,106.0,104.0,13.4,1505.2,344.1,-0.8,1.8,2471.706,13.29,0.007,98.1
2023-11-27T05:31:03,42.805,6.029,0.001,0.003,-0.012,106.0,105.0,105.0,13.4,1505.2,359.1,-0.8,1.8,2471.722,13.29,0.003,18.4
2023-11-27T05:34:03,42.805,6.029,-0.001,0.013,-0.033,106.0,106.0,104.0,13.4,1505.2,350.5,-0.8,1.8,2471.699,13.3,0.013,355.6
2023-11-27T05:37:03,42.805,6.029,-0.001,0.0,0.0,104.0,106.0,105.0,13.4,1505.2,337.3,-0.7,1.8,2471.704,13.3,0.001,270.0
2023-11-27T05:40:03,42.805,6.029,0.006,0.001,-0.024,106.0,106.0,104.0,13.3,1505.2,346.9,-0.7,1.8,2471.701,13.3,0.006,80.5
2023-11-27T05:43:03,42.805,6.029,0.006,0.01,-0.016,107.0,107.0,103.0,13.3,1505.2,355.9,-0.7,1.8,2471.699,13.3,0.011,31.0
2023-11-27T05:46:03,42.805,6.029,0.01,-0.007,-0.007,110.0,106.0,102.0,13.4,1505.2,339.3,-0.7,1.8,2471.726,13.29,0.012,125.0
2023-11-27T05:49:03,42.805,6.029,0.003,0.011,-0.001,105.0,105.0,105.0,13.4,1505.2,356.4,-0.8,1.8,2471.722,13.29,0.011,15.3
2023-11-27T05:52:03,42.805,6.029,0.001,-0.01,-0.02,105.0,104.0,103.0,13.3,1505.2,353.3,-0.7,1.8,2471.701,13.29,0.01,174.3
2023-11-27T05:55:03,42.805,6.029,0.004,0.0,-0.011,108.0,104.0,105.0,13.4,1505.2,339.1,-0.8,1.8,2471.746,13.29,0.004,90.0
2023-11-27T05:58:03,42.805,6.029,-0.005,-0.005,-0.027,106.0,104.0,105.0,13.3,1505.2,352.1,-0.8,1.8,2471.69,13.29,0.007,225.0
2023-11-27T06:04:03,42.805,6.029,0.016,-0.009,0.01,107.0,105.0,101.0,13.4,1505.2,0.9,-0.8,1.8,2471.751,13.29,0.018,119.4
2023-11-27T06:07:03,42.805,6.029,0.001,0.001,-0.005,108.0,108.0,106.0,13.4,1505.2,340.7,-0.8,1.8,2471.773,13.29,0.001,45.0
2023-11-27T06:10:03,42.805,6.029,0.017,-0.004,0.002,107.0,106.0,103.0,13.4,1505.2,345.1,-0.8,1.8,2471.784,13.29,0.017,103.2
2023-11-27T06:13:03,42.805,6.029,0.023,0.007,-0.029,105.0,110.0,104.0,13.3,1505.2,343.7,-0.8,1.8,2471.752,13.29,0.024,73.1
2023-11-27T06:16:03,42.805,6.029,-0.003,-0.011,-0.016,105.0,105.0,104.0,13.3,1505.2,353.5,-0.8,1.8,2471.715,13.29,0.011,195.3
2023-11-27T06:19:03,42.805,6.029,-0.004,-0.01,-0.015,109.0,105.0,103.0,13.4,1505.2,356.1,-0.8,1.8,2471.746,13.29,0.01,201.8
2023-11-27T06:22:03,42.805,6.029,-0.011,0.009,-0.042,105.0,105.0,103.0,13.4,1505.2,349.1,-0.8,1.8,2471.733,13.29,0.014,309.3
2023-11-27T06:25:03,42.805,6.029,-0.004,0.012,-0.027,111.0,106.0,103.0,13.4,1505.2,347.3,-0.7,1.8,2471.741,13.29,0.012,341.6
2023-11-27T06:28:03,42.805,6.029,-0.01,-0.008,-0.066,108.0,106.0,104.0,13.4,1505.2,349.2,-0.8,1.8,2471.742,13.29,0.012,231.3
2023-11-27T06:31:03,42.805,6.029,-0.001,-0.012,-0.035,107.0,105.0,102.0,13.3,1505.2,349.3,-0.8,1.8,2471.755,13.29,0.012,184.8
2023-11-27T06:34:03,42.805,6.029,0.005,-0.008,-0.008,107.0,106.0,103.0,13.4,1505.2,353.6,-0.8,1.8,2471.694,13.29,0.009,148.0
2023-11-27T06:37:03,42.805,6.029,0.012,-0.01,-0.024,108.0,104.0,104.0,13.4,1505.2,350.9,-0.7,1.8,2471.751,13.29,0.015,129.8
2023-11-27T06:40:03,42.805,6.029,0.0,-0.011,-0.022,106.0,106.0,104.0,13.4,1505.2,335.2,-0.7,1.8,2471.697,13.29,0.011,180.0
2023-11-27T06:43:03,42.805,6.029,0.0,-0.006,-0.005,106.0,106.0,104.0,13.3,1505.2,345.3,-0.8,1.8,2471.734,13.29,0.006,180.0
2023-11-27T06:46:03,42.805,6.029,-0.009,0.016,-0.011,108.0,106.0,104.0,13.4,1505.2,352.5,-0.8,1.8,2471.753,13.29,0.018,330.6
2023-11-27T06:49:03,42.805,6.029,0.014,0.014,-0.035,105.0,104.0,104.0,13.3,1505.2,355.6,-0.8,1.8,2471.749,13.29,0.019,45.0
2023-11-27T06:52:03,42.805,6.029,0.012,-0.003,-0.005,105.0,105.0,104.0,13.4,1505.2,357.1,-0.8,1.8,2471.763,13.29,0.012,104.0
2023-11-27T06:55:03,42.805,6.029,-0.009,0.001,-0.027,107.0,106.0,105.0,13.3,1505.2,343.9,-0.7,1.8,2471.7,13.29,0.009,276.3
2023-11-27T06:58:03,42.805,6.029,0.016,0.007,-0.034,105.0,106.0,104.0,13.4,1505.2,339.9,-0.8,1.9,2471.707,13.29,0.017,66.4
2023-11-27T07:04:03,42.805,6.029,0.019,0.0,0.017,105.0,106.0,104.0,13.4,1505.2,339.0,-0.8,1.8,2471.782,13.29,0.019,90.0
2023-11-27T07:07:03,42.805,6.029,0.004,0.004,-0.018,105.0,106.0,104.0,13.4,1505.2,354.5,-0.8,1.8,2471.786,13.29,0.005,45.0
2023-11-27T07:10:03,42.805,6.029,0.001,0.001,0.001,106.0,105.0,103.0,13.4,1505.2,1.8,-0.8,1.8,2471.765,13.29,0.001,45.0
2023-11-27T07:13:03,42.805,6.029,-0.009,0.0,0.011,105.0,104.0,104.0,13.4,1505.2,355.4,-0.8,1.8,2471.782,13.29,0.009,270.0
2023-11-27T07:16:03,42.805,6.029,0.012,-0.003,-0.019,105.0,107.0,104.0,13.4,1505.2,347.5,-0.7,1.8,2471.777,13.29,0.012,104.0
2023-11-27T07:19:03,42.805,6.029,-0.005,-0.008,-0.01,108.0,106.0,103.0,13.4,1505.2,357.1,-0.8,1.8,2471.732,13.29,0.009,212.0
2023-11-27T07:22:03,42.805,6.029,0.027,-0.034,-0.023,104.0,105.0,103.0,13.4,1505.2,1.7,-0.8,1.8,2471.776,13.29,0.043,141.5
2023-11-27T07:25:03,42.805,6.029,-0.018,-0.016,-0.021,104.0,105.0,104.0,13.4,1505.2,334.1,-0.8,1.8,2471.727,13.29,0.024,228.4
2023-11-27T07:28:03,42.805,6.029,0.008,-0.027,-0.025,105.0,106.0,104.0,13.3,1505.2,347.1,-0.8,1.8,2471.756,13.29,0.028,163.5
2023-11-27T07:31:03,42.805,6.029,0.009,0.008,-0.021,106.0,105.0,104.0,13.4,1505.2,344.5,-0.7,1.8,2471.749,13.29,0.012,48.4
2023-11-27T07:34:03,42.805,6.029,0.013,0.005,-0.009,105.0,106.0,104.0,13.4,1505.2,353.7,-0.8,1.8,2471.722,13.29,0.013,69.0
2023-11-27T07:37:03,42.805,6.029,0.002,-0.01,-0.036,105.0,106.0,104.0,13.3,1505.2,335.2,-0.8,1.8,2471.736,13.29,0.01,168.7
2023-11-27T07:40:03,42.805,6.029,-0.011,0.006,-0.034,108.0,105.0,104.0,13.3,1505.2,344.1,-0.8,1.8,2471.787,13.29,0.012,298.6
2023-11-27T07:43:03,42.805,6.029,0.003,0.0,-0.012,106.0,105.0,104.0,13.4,1505.2,0.0,-0.8,1.8,2471.75,13.29,0.003,90.0
2023-11-27T07:46:03,42.805,6.029,0.009,0.0,-0.047,106.0,106.0,104.0,13.4,1505.2,344.6,-0.7,1.8,2471.747,13.29,0.009,90.0
2023-11-27T07:49:03,42.805,6.029,0.008,0.003,0.011,108.0,106.0,103.0,13.4,1505.2,344.8,-0.8,1.8,2471.765,13.29,0.008,69.4
2023-11-27T07:52:03,42.805,6.029,0.003,0.014,-0.024,108.0,106.0,103.0,13.4,1505.2,359.0,-0.7,1.8,2471.761,13.29,0.014,12.1
2023-11-27T07:55:03,42.805,6.029,-0.003,-0.002,-0.029,106.0,106.0,104.0,13.4,1505.2,342.1,-0.8,1.8,2471.745,13.29,0.003,236.3
2023-11-27T07:58:03,42.805,6.029,0.0,-0.009,-0.002,105.0,107.0,104.0,13.4,1505.2,347.2,-0.8,1.8,2471.717,13.29,0.009,180.0
2023-11-27T08:04:03,42.805,6.029,0.002,-0.02,-0.049,107.0,105.0,105.0,13.4,1505.2,344.1,-0.8,1.8,2471.777,13.29,0.02,174.3
2023-11-27T08:07:03,42.805,6.029,-0.008,-0.01,-0.016,107.0,106.0,104.0,13.3,1505.2,359.1,-0.8,1.8,2471.773,13.29,0.012,218.7
2023-11-27T08:10:03,42.805,6.029,-0.013,-0.006,-0.048,108.0,106.0,104.0,13.4,1505.2,335.7,-0.7,1.8,2471.741,13.29,0.014,245.2
2023-11-27T08:13:03,42.805,6.029,-0.001,-0.011,-0.033,106.0,106.0,104.0,13.4,1505.2,350.3,-0.7,1.8,2471.736,13.29,0.011,185.2
2023-11-27T08:16:03,42.805,6.029,-0.018,-0.003,-0.014,106.0,106.0,104.0,13.4,1505.2,335.1,-0.7,1.8,2471.757,13.29,0.018,260.5
2023-11-27T08:19:03,42.805,6.029,0.007,-0.006,-0.019,107.0,107.0,103.0,13.3,1505.2,351.7,-0.8,1.8,2471.719,13.29,0.009,130.6
2023-11-27T08:22:03,42.805,6.029,0.007,-0.01,0.013,107.0,106.0,104.0,13.4,1505.2,351.7,-0.8,1.8,2471.701,13.29,0.012,145.0
2023-11-27T08:25:03,42.805,6.029,0.003,-0.017,0.017,106.0,106.0,105.0,13.4,1505.2,345.7,-0.7,1.8,2471.756,13.29,0.017,170.0
2023-11-27T08:28:03,42.805,6.029,0.007,-0.001,-0.019,107.0,106.0,104.0,13.4,1505.2,349.5,-0.8,1.8,2471.736,13.29,0.007,98.1
2023-11-27T08:31:03,42.805,6.029,0.003,0.015,-0.011,107.0,105.0,104.0,13.4,1505.2,355.0,-0.7,1.8,2471.715,13.29,0.015,11.3
2023-11-27T08:34:03,42.805,6.029,-0.011,-0.005,-0.011,106.0,108.0,104.0,13.4,1505.2,353.8,-0.8,1.8,2471.716,13.29,0.012,245.6
2023-11-27T08:37:03,42.805,6.029,0.015,-0.011,-0.019,107.0,105.0,104.0,13.4,1505.2,1.7,-0.8,1.8,2471.716,13.29,0.018,126.3
2023-11-27T08:40:03,42.805,6.029,0.013,-0.012,-0.031,108.0,107.0,103.0,13.4,1505.2,337.2,-0.7,1.8,2471.692,13.29,0.017,132.7
2023-11-27T08:43:03,42.805,6.029,-0.006,-0.011,-0.026,105.0,106.0,105.0,13.4,1505.2,346.3,-0.7,1.8,2471.707,13.29,0.012,208.6
2023-11-27T08:46:03,42.805,6.029,0.001,-0.02,-0.01,107.0,106.0,103.0,13.4,1505.2,0.9,-0.8,1.8,2471.732,13.29,0.02,177.1
2023-11-27T08:49:03,42.805,6.029,0.001,-0.003,-0.002,105.0,106.0,104.0,13.3,1505.2,338.3,-0.8,1.9,2471.706,13.29,0.003,161.6
2023-11-27T08:52:03,42.805,6.029,-0.003,-0.002,-0.015,107.0,106.0,104.0,13.4,1505.2,347.5,-0.8,1.8,2471.674,13.29,0.003,236.3
2023-11-27T08:55:03,42.805,6.029,-0.018,0.002,-0.03,106.0,105.0,103.0,13.3,1505.2,355.1,-0.7,1.8,2471.689,13.29,0.018,276.3
2023-11-27T08:58:03,42.805,6.029,-0.001,-0.009,-0.021,107.0,106.0,102.0,13.4,1505.2,334.1,-0.8,1.8,2471.75,13.29,0.009,186.3
2023-11-27T09:04:03,42.805,6.029,0.001,-0.018,-0.022,106.0,106.0,104.0,13.3,1505.2,2.5,-0.8,1.8,2471.779,13.29,0.018,176.8
2023-11-27T09:07:03,42.805,6.029,0.015,-0.01,-0.002,106.0,105.0,105.0,13.4,1505.2,338.9,-0.8,1.8,2471.733,13.29,0.018,123.7
2023-11-27T09:10:03,42.805,6.029,0.007,-0.01,-0.024,107.0,107.0,103.0,13.4,1505.2,349.6,-0.7,1.8,2471.74,13.29,0.012,145.0
2023-11-27T09:13:03,42.805,6.029,-0.023,-0.003,-0.011,106.0,105.0,103.0,13.4,1505.2,0.0,-0.8,1.8,2471.705,13.29,0.023,262.6
2023-11-27T09:16:03,42.805,6.029,0.0,-0.014,-0.027,106.0,105.0,103.0,13.4,1505.2,355.1,-0.8,1.8,2471.717,13.29,0.014,180.0
2023-11-27T09:19:03,42.805,6.029,0.001,0.017,-0.026,107.0,107.0,104.0,13.3,1505.2,349.9,-0.8,1.8,2471.689,13.29,0.017,3.4
2023-11-27T09:22:03,42.805,6.029,-0.018,0.003,-0.011,107.0,105.0,104.0,13.4,1505.2,1.7,-0.8,1.8,2471.695,13.29,0.018,279.5
2023-11-27T09:25:03,42.805,6.029,-0.026,-0.001,-0.008,108.0,106.0,104.0,13.4,1505.2,347.7,-0.7,1.8,2471.648,13.29,0.026,267.8
2023-11-27T09:28:03,42.805,6.029,-0.005,-0.007,-0.017,106.0,106.0,104.0,13.4,1505.2,344.0,-0.7,1.8,2471.717,13.29,0.008,215.5
2023-11-27T09:31:03,42.805,6.029,-0.014,-0.024,-0.053,106.0,106.0,103.0,13.4,1505.2,350.9,-0.8,1.8,2471.661,13.29,0.027,210.3
2023-11-27T09:34:03,42.805,6.029,-0.014,0.001,-0.008,106.0,107.0,104.0,13.3,1505.2,350.0,-0.8,1.8,2471.685,13.29,0.014,274.1
2023-11-27T09:37:03,42.805,6.029,0.003,0.002,-0.002,106.0,108.0,104.0,13.4,1505.2,358.0,-0.7,1.8,2471.697,13.29,0.003,56.3
2023-11-27T09:40:03,42.805,6.029,0.015,-0.009,-0.023,106.0,107.0,104.0,13.4,1505.2,343.7,-0.8,1.8,2471.654,13.29,0.017,121.0
2023-11-27T09:43:03,42.805,6.029,0.001,-0.003,-0.005,107.0,106.0,103.0,13.4,1505.2,355.5,-0.8,1.8,2471.642,13.29,0.003,161.6
2023-11-27T09:46:03,42.805,6.029,-0.009,-0.005,-0.028,106.0,106.0,104.0,13.3,1505.2,350.2,-0.8,1.8,2471.639,13.29,0.01,240.9
2023-11-27T09:49:03,42.805,6.029,-0.017,0.001,-0.025,108.0,106.0,104.0,13.3,1505.2,340.4,-0.8,1.8,2471.673,13.29,0.017,273.4
2023-11-27T09:52:03,42.805,6.029,0.004,-0.02,-0.023,106.0,107.0,105.0,13.3,1505.2,348.6,-0.8,1.8,2471.693,13.29,0.02,168.7
2023-11-27T09:55:03,42.805,6.029,-0.032,0.023,-0.029,107.0,107.0,103.0,13.3,1505.2,345.7,-0.7,1.8,2471.649,13.29,0.039,305.7
2023-11-27T09:58:03,42.805,6.029,-0.008,-0.01,-0.027,106.0,106.0,104.0,13.4,1505.2,355.9,-0.8,1.8,2471.705,13.29,0.012,218.7
2023-11-27T10:04:03,42.805,6.029,-0.008,-0.015,0.012,108.0,106.0,103.0,13.4,1505.2,354.9,-0.7,1.8,2471.725,13.29,0.017,208.1
2023-11-27T10:07:03,42.805,6.029,0.021,-0.014,-0.004,107.0,105.0,104.0,13.3,1505.2,337.5,-0.8,1.8,2471.709,13.29,0.025,123.7
2023-11-27T10:10:03,42.805,6.029,-0.012,-0.004,-0.027,107.0,106.0,104.0,13.4,1505.2,342.0,-0.7,1.8,2471.657,13.29,0.012,251.6
2023-11-27T10:13:03,42.805,6.029,-0.008,-0.016,-0.003,108.0,106.0,105.0,13.3,1505.2,1.7,-0.8,1.8,2471.669,13.29,0.017,206.6
2023-11-27T10:16:03,42.805,6.029,-0.003,-0.008,-0.022,105.0,106.0,105.0,13.4,1505.2,338.3,-0.7,1.8,2471.7,13.29,0.008,200.6
2023-11-27T10:19:03,42.805,6.029,-0.001,-0.006,-0.037,106.0,106.0,103.0,13.4,1505.2,345.1,-0.7,1.8,2471.696,13.29,0.006,189.5
2023-11-27T10:22:03,42.805,6.029,-0.005,-0.013,0.003,106.0,105.0,103.0,13.3,1505.2,359.1,-0.8,1.8,2471.69,13.29,0.013,201.0
2023-11-27T10:25:03,42.805,6.029,-0.008,-0.019,-0.011,106.0,106.0,104.0,13.4,1505.2,341.0,-0.8,1.8,2471.655,13.29,0.02,202.8
2023-11-27T10:28:03,42.805,6.029,-0.011,-0.012,-0.034,107.0,104.0,105.0,13.4,1505.2,354.3,-0.7,1.8,2471.605,13.29,0.016,222.5
2023-11-27T10:31:03,42.805,6.029,-0.02,-0.024,-0.014,108.0,105.0,105.0,13.4,1505.2,335.2,-0.8,1.8,2471.617,13.29,0.031,219.8
2023-11-27T10:34:03,42.805,6.029,-0.012,-0.012,-0.016,107.0,107.0,104.0,13.4,1505.2,342.8,-0.8,1.8,2471.646,13.29,0.016,225.0
2023-11-27T10:37:03,42.805,6.029,0.004,-0.016,-0.04,107.0,107.0,103.0,13.4,1505.2,354.2,-0.8,1.8,2471.622,13.29,0.016,166.0
2023-11-27T10:40:03,42.805,6.029,-0.005,-0.014,0.0,108.0,107.0,105.0,13.3,1505.2,340.4,-0.8,1.8,2471.613,13.29,0.014,199.6
2023-11-27T10:43:03,42.805,6.029,0.015,-0.005,-0.035,105.0,107.0,104.0,13.3,1505.2,343.9,-0.8,1.8,2471.662,13.29,0.015,108.4
2023-11-27T10:46:03,42.805,6.029,-0.02,-0.001,-0.016,107.0,105.0,104.0,13.4,1505.2,0.8,-0.8,1.8,2471.619,13.29,0.02,267.1
2023-11-27T10:49:03,42.805,6.029,0.003,-0.02,-0.021,106.0,105.0,104.0,13.3,1505.2,338.2,-0.8,1.8,2471.621,13.29,0.02,171.5
2023-11-27T10:52:03,42.805,6.029,-0.01,-0.006,-0.016,106.0,106.0,105.0,13.4,1505.2,344.3,-0.8,1.8,2471.612,13.29,0.011,239.0
2023-11-27T10:55:03,42.805,6.029,-0.005,0.001,-0.016,107.0,105.0,105.0,13.4,1505.2,356.1,-0.7,1.8,2471.615,13.29,0.005,281.3
2023-11-27T10:58:03,42.805,6.029,-0.022,-0.01,-0.045,106.0,106.0,103.0,13.4,1505.2,349.2,-0.8,1.8,2471.63,13.29,0.024,245.6